When you browse on this site, cookies collect data to enhance your experience and personalize the content and advertising you see.
Visit our Privacy Policy to learn more. By continuing to use the site, you agree to this use of cookies and data.

Stündliche Wetter Volosovka

Heute, 10 Juli, Freitag

Zeit Temperatur Niederschläge Wind Luftdruck Luftfeuchtigkeit
00:00 +12°C° 0 mm 2 m/S 744 mmHg 87%
01:00 +11°C° 0 mm 3 m/S 744 mmHg 88%
02:00 +10°C° 0 mm 3 m/S 744 mmHg 90%
03:00 +11°C° 0 mm 3 m/S 744 mmHg 88%
04:00 +12°C° 0 mm 3 m/S 743 mmHg 87%
05:00 +12°C° 0 mm 3 m/S 743 mmHg 85%
06:00 +13°C° 0 mm 4 m/S 743 mmHg 85%
07:00 +14°C° 0 mm 5 m/S 742 mmHg 85%
08:00 +15°C° 0 mm 6 m/S 742 mmHg 85%
09:00 +16°C° 0.1 mm 6 m/S 742 mmHg 84%
10:00 +19°C° 0.1 mm 6 m/S 742 mmHg 82%
11:00 +20°C° 0.1 mm 6 m/S 741 mmHg 81%
12:00 +21°C° 0.8 mm 6 m/S 741 mmHg 82%
13:00 +22°C° 0.8 mm 6 m/S 741 mmHg 82%
14:00 +23°C° 0.8 mm 6 m/S 741 mmHg 83%
15:00 +23°C° 0.9 mm 5 m/S 741 mmHg 84%
16:00 +23°C° 0.9 mm 5 m/S 741 mmHg 85%
17:00 +23°C° 0.9 mm 4 m/S 741 mmHg 86%
18:00 +22°C° 0.7 mm 4 m/S 741 mmHg 88%
19:00 +21°C° 0.7 mm 3 m/S 741 mmHg 90%
20:00 +20°C° 0.7 mm 2 m/S 741 mmHg 92%
21:00 +20°C° 0.9 mm 3 m/S 740 mmHg 92%
22:00 +20°C° 0.9 mm 3 m/S 740 mmHg 93%
23:00 +19°C° 0.9 mm 3 m/S 740 mmHg 94%

Morgen, 11 Juli, Samstag

Zeit Temperatur Niederschläge Wind Luftdruck Luftfeuchtigkeit
00:00 +20°C° 0.4 mm 4 m/S 740 mmHg 94%
01:00 +20°C° 0.4 mm 5 m/S 740 mmHg 94%
02:00 +20°C° 0.4 mm 6 m/S 740 mmHg 94%
03:00 +20°C° 0.3 mm 5 m/S 741 mmHg 94%
04:00 +19°C° 0.3 mm 5 m/S 741 mmHg 95%
05:00 +19°C° 0.3 mm 5 m/S 741 mmHg 96%
06:00 +19°C° 0.1 mm 5 m/S 742 mmHg 93%
07:00 +19°C° 0.1 mm 4 m/S 742 mmHg 90%
08:00 +19°C° 0.1 mm 4 m/S 743 mmHg 87%
09:00 +19°C° 0 mm 4 m/S 743 mmHg 81%
10:00 +20°C° 0 mm 4 m/S 744 mmHg 75%
11:00 +20°C° 0 mm 4 m/S 744 mmHg 69%
12:00 +19°C° 0 mm 4 m/S 745 mmHg 70%
13:00 +19°C° 0 mm 4 m/S 745 mmHg 70%
14:00 +19°C° 0 mm 4 m/S 745 mmHg 71%
15:00 +18°C° 0 mm 3 m/S 745 mmHg 73%
16:00 +17°C° 0 mm 3 m/S 745 mmHg 75%
17:00 +16°C° 0 mm 2 m/S 745 mmHg 77%
18:00 +16°C° 0 mm 2 m/S 745 mmHg 78%
19:00 +15°C° 0 mm 2 m/S 746 mmHg 79%
20:00 +15°C° 0 mm 2 m/S 746 mmHg 80%
21:00 +14°C° 0.1 mm 3 m/S 746 mmHg 81%
22:00 +13°C° 0.1 mm 3 m/S 746 mmHg 82%
23:00 +13°C° 0.1 mm 4 m/S 747 mmHg 82%

übermorgen, 12 Juli, Sonntag

Zeit Temperatur Niederschläge Wind Luftdruck Luftfeuchtigkeit
00:00 +12°C° 0.6 mm 3 m/S 747 mmHg 87%
01:00 +13°C° 0.6 mm 2 m/S 747 mmHg 92%
02:00 +13°C° 0.6 mm 2 m/S 747 mmHg 97%
03:00 +12°C° 0.4 mm 2 m/S 747 mmHg 96%
04:00 +12°C° 0.4 mm 1 m/S 746 mmHg 96%
05:00 +12°C° 0.4 mm 1 m/S 746 mmHg 95%
06:00 +12°C° 0.3 mm 1 m/S 747 mmHg 95%
07:00 +12°C° 0.3 mm 1 m/S 747 mmHg 94%
08:00 +12°C° 0.3 mm 1 m/S 747 mmHg 94%
09:00 +13°C° 0.3 mm 1 m/S 747 mmHg 91%
10:00 +13°C° 0.3 mm 2 m/S 747 mmHg 88%
11:00 +14°C° 0.3 mm 2 m/S 747 mmHg 85%
12:00 +15°C° 0.2 mm 2 m/S 747 mmHg 80%
13:00 +16°C° 0.2 mm 2 m/S 747 mmHg 75%
14:00 +16°C° 0.2 mm 1 m/S 747 mmHg 70%
15:00 +17°C° 0.1 mm 2 m/S 747 mmHg 71%
16:00 +17°C° 0.1 mm 2 m/S 747 mmHg 72%
17:00 +17°C° 0.1 mm 2 m/S 746 mmHg 73%
18:00 +16°C° 0.2 mm 2 m/S 746 mmHg 78%
19:00 +15°C° 0.2 mm 2 m/S 746 mmHg 83%
20:00 +14°C° 0.2 mm 2 m/S 746 mmHg 89%
21:00 +13°C° 0 mm 2 m/S 746 mmHg 91%
22:00 +12°C° 0 mm 2 m/S 746 mmHg 93%
23:00 +10°C° 0 mm 2 m/S 746 mmHg 95%

13 Juli, Montag

Zeit Temperatur Niederschläge Wind Luftdruck Luftfeuchtigkeit
00:00 +10°C° 0 mm 2 m/S 746 mmHg 95%
01:00 +9°C° 0 mm 3 m/S 746 mmHg 95%
02:00 +9°C° 0 mm 3 m/S 746 mmHg 95%
03:00 +8°C° 0 mm 3 m/S 746 mmHg 96%
04:00 +8°C° 0 mm 2 m/S 746 mmHg 96%
05:00 +8°C° 0 mm 2 m/S 745 mmHg 96%
06:00 +9°C° 0 mm 3 m/S 745 mmHg 92%
07:00 +11°C° 0 mm 3 m/S 745 mmHg 89%
08:00 +13°C° 0 mm 3 m/S 745 mmHg 85%
09:00 +14°C° 0.1 mm 3 m/S 745 mmHg 79%
10:00 +15°C° 0.1 mm 4 m/S 745 mmHg 73%
11:00 +17°C° 0.1 mm 4 m/S 745 mmHg 67%
12:00 +18°C° 0.1 mm 4 m/S 744 mmHg 64%
13:00 +18°C° 0.1 mm 4 m/S 744 mmHg 61%
14:00 +19°C° 0.1 mm 3 m/S 744 mmHg 57%
15:00 +19°C° 0 mm 3 m/S 743 mmHg 59%
16:00 +20°C° 0 mm 3 m/S 743 mmHg 60%
17:00 +20°C° 0 mm 3 m/S 743 mmHg 62%
18:00 +18°C° 0 mm 3 m/S 743 mmHg 69%
19:00 +17°C° 0 mm 3 m/S 743 mmHg 77%
20:00 +15°C° 0 mm 2 m/S 743 mmHg 85%
21:00 +14°C° 0 mm 2 m/S 743 mmHg 88%
22:00 +13°C° 0 mm 2 m/S 743 mmHg 91%
23:00 +11°C° 0 mm 3 m/S 743 mmHg 95%

14 Juli, Dienstag

Zeit Temperatur Niederschläge Wind Luftdruck Luftfeuchtigkeit
00:00 +11°C° 0 mm 3 m/S 743 mmHg 95%
01:00 +11°C° 0 mm 3 m/S 743 mmHg 96%
02:00 +10°C° 0 mm 3 m/S 743 mmHg 97%
03:00 +10°C° 0 mm 3 m/S 743 mmHg 97%
04:00 +10°C° 0 mm 3 m/S 743 mmHg 97%
05:00 +9°C° 0 mm 3 m/S 743 mmHg 98%
06:00 +11°C° 0 mm 3 m/S 743 mmHg 92%
07:00 +12°C° 0 mm 3 m/S 743 mmHg 87%
08:00 +14°C° 0 mm 4 m/S 743 mmHg 81%
09:00 +15°C° 0 mm 4 m/S 743 mmHg 74%
10:00 +17°C° 0 mm 4 m/S 743 mmHg 67%
11:00 +18°C° 0 mm 4 m/S 744 mmHg 60%
12:00 +19°C° 0 mm 4 m/S 743 mmHg 58%
13:00 +19°C° 0 mm 4 m/S 743 mmHg 57%
14:00 +20°C° 0 mm 4 m/S 743 mmHg 56%
15:00 +20°C° 0 mm 4 m/S 743 mmHg 58%
16:00 +20°C° 0 mm 4 m/S 743 mmHg 60%
17:00 +20°C° 0 mm 4 m/S 743 mmHg 62%
18:00 +18°C° 0 mm 3 m/S 743 mmHg 68%
19:00 +17°C° 0 mm 2 m/S 743 mmHg 75%
20:00 +16°C° 0 mm 2 m/S 743 mmHg 81%
21:00 +15°C° 0 mm 1 m/S 743 mmHg 84%
22:00 +14°C° 0 mm 1 m/S 743 mmHg 88%
23:00 +13°C° 0 mm 1 m/S 744 mmHg 91%

15 Juli, Mittwoch

Zeit Temperatur Niederschläge Wind Luftdruck Luftfeuchtigkeit
00:00 +12°C° 0 mm 1 m/S 744 mmHg 91%
01:00 +12°C° 0 mm 1 m/S 744 mmHg 91%
02:00 +12°C° 0 mm 1 m/S 744 mmHg 91%
03:00 +12°C° 0 mm 1 m/S 744 mmHg 91%
04:00 +12°C° 0 mm 1 m/S 744 mmHg 91%
05:00 +12°C° 0 mm 1 m/S 744 mmHg 91%
06:00 +14°C° 0 mm 1 m/S 744 mmHg 85%
07:00 +16°C° 0 mm 1 m/S 744 mmHg 80%
08:00 +18°C° 0 mm 1 m/S 744 mmHg 74%
09:00 +19°C° 0 mm 2 m/S 744 mmHg 69%
10:00 +20°C° 0 mm 2 m/S 744 mmHg 64%
11:00 +21°C° 0 mm 2 m/S 744 mmHg 59%
12:00 +21°C° 0.1 mm 2 m/S 744 mmHg 58%
13:00 +22°C° 0.1 mm 3 m/S 744 mmHg 57%
14:00 +22°C° 0.1 mm 3 m/S 744 mmHg 56%
15:00 +22°C° 0 mm 3 m/S 743 mmHg 58%
16:00 +23°C° 0 mm 2 m/S 743 mmHg 60%
17:00 +23°C° 0 mm 2 m/S 743 mmHg 62%
18:00 +20°C° 0 mm 2 m/S 743 mmHg 69%
19:00 +19°C° 0 mm 2 m/S 743 mmHg 75%
20:00 +18°C° 0 mm 2 m/S 743 mmHg 82%
21:00 +17°C° 0 mm 2 m/S 742 mmHg 85%
22:00 +16°C° 0 mm 2 m/S 742 mmHg 88%
23:00 +15°C° 0 mm 2 m/S 742 mmHg 91%
Mehr zeigen